Home > Time Zones > World Clock > Weather > U.S.A. > Nome > Past weeks

Flag for U.S.A. Weather past 2 weeks in Nome, Alaska, U.S.A.

Now
11 °F

Passing clouds.


Feels Like: 1 °F
Forecast: 0 / 15 °F
Wind: 6 mph from West

Location: Nome Airport

Current Time: Apr 1, 2015 at 7:21:43 PM

Latest Report: Apr 1, 2015 at 6:53 PM


Visibility: 10 mi

Pressure: 30.13 "Hg

Humidity: 81%

Dew point: 6 °F

Location of NomeLocation

Historic Weather in Nome — Graph

°F

Nome temperature yesterday

Maximum temperature yesterday: 11 °F (at 6:53 PM)
Minimum temperature yesterday: -9 °F (at 3:53 AM)
Average temperature yesterday: 2 °F

Past Weeks' High & Low Weather Summary

 TemperatureHumidityPressure
High28 °F (Mar 19, 2:53 PM)96% (Mar 21, 3:53 AM)30.12 "Hg (Mar 21, 3:53 AM)
Low-9 °F (Mar 31, 3:53 AM)52% (Mar 23, 1:53 PM)29.49 "Hg (Mar 26, 5:53 PM)
Average12 °F79%29.77 "Hg
* Reported Mar 17 5:53 PM — Apr 1 5:53 PM, Nome, Weather by CustomWeather, © 2015

Note: Actual official high and low records may vary slightly from our data, if they occured in-between our weather recording intervals... More about our weather records

Advertising

Nome weather history for previous 24 hours

 ConditionsComfort  
Time TempWeatherWind HumidityBarometerVisibility
5:53 PM
Wed, Apr 1
14 °FPassing clouds.No wind67%30.11 "Hg10 mi
4:53 PM11 °FPassing clouds.No wind73%30.10 "Hg10 mi
3:53 PM10 °FPassing clouds.3 mph67%30.10 "Hg10 mi
2:53 PM9 °FSunny.3 mph76%30.08 "Hg10 mi
1:53 PM9 °FSunny.No wind70%30.06 "Hg10 mi
12:53 PM7 °FSunny.No wind76%30.03 "Hg10 mi
11:53 AM7 °FSunny.No wind73%30.03 "Hg10 mi
10:53 AM1 °FSunny.No wind79%30.00 "Hg10 mi
9:53 AM-3 °FSunny.No wind78%29.98 "Hg10 mi
8:53 AM-7 °FPassing clouds.No wind83%29.97 "Hg10 mi
7:53 AM-7 °FPassing clouds.No windN/A29.96 "Hg10 mi
6:53 AM-6 °FPassing clouds.No windN/A29.93 "Hg10 mi
5:53 AM-5 °FPassing clouds.No wind83%29.92 "Hg10 mi
4:53 AM-6 °FPassing clouds.No wind91%29.91 "Hg10 mi
3:53 AM-4 °FClear.No wind86%29.90 "Hg10 mi
2:53 AM-3 °FClear.3 mph82%29.88 "Hg10 mi
1:53 AM-4 °FPassing clouds.3 mph83%29.88 "Hg10 mi
12:53 AM-1 °FPassing clouds.No wind79%29.86 "Hg10 mi
11:53 PM
Tue, Mar 31
0 °FPassing clouds.5 mph83%29.85 "Hg10 mi
10:53 PM0 °FPassing clouds.3 mph87%29.83 "Hg10 mi
9:53 PM4 °FScattered clouds.No wind80%29.81 "Hg10 mi
8:53 PM9 °FScattered clouds.3 mph70%29.81 "Hg10 mi
7:53 PM10 °FScattered clouds.3 mph73%29.82 "Hg10 mi
Weather by CustomWeather, © 2015

See weather overviewHow to use our weather pages